Weather History for KIML - November, 2011

Change the Weather History Date:

Tuesday, November 15, 2011

  Actual Average Record
Temperature  
Mean Temperature 36 °F 38 °F  
Max Temperature 51 °F 51 °F 79 °F (1941)
Min Temperature 21 °F 24 °F 2 °F (1920)
Degree Days  
Heating Degree Days 29 27  
Month to date heating degree days 356 360  
Cooling Degree Days 0 0  
Month to date cooling degree days 0 0  
Year to date cooling degree days 1096 963  
Moisture  
Dew Point 17 °F    
Average Humidity 49    
Maximum Humidity 74    
Minimum Humidity 23    
Precipitation  
Precipitation 0.00 in 0.01 in 0.67 in (1909)
Snow  
Snow 0.00 in - - ()
Snow Depth 0.00 in    
Sea Level Pressure  
Sea Level Pressure 29.92 in    
Wind  
Wind Speed 12 mph (NNW)    
Max Wind Speed 28 mph    
Max Gust Speed 35 mph    
Visibility 10 miles    
Events      
T = Trace of Precipitation, MM = Missing Value Source: NWS Daily Summary

Daily Weather History Graph

Daily Weather History Graph

Search for Another Location

Airport or City:

Trip Planner

Search our weather history database for the weather conditions in past years. The results will help you decide how hot, cold, wet, or windy it might be!

Date:

Astronomy

Nov. 15, 2011 Rise Set
Actual Time 6:32 AM MST 4:29 PM MST
Civil Twilight 6:03 AM MST 4:58 PM MST
Nautical Twilight 5:30 AM MST 5:31 PM MST
Astronomical Twilight 4:58 AM MST 6:03 PM MST
Moon 8:40 PM MST (11/15) 10:33 AM MST (11/15)
Length of Visible Light 10h 55m
Length of Day
9h 56m
Waning Gibbous, 78% of the Moon is Illuminated
Nov 15
Waning Gibbous
Nov 18
Last Quarter
Nov 24
New
Dec 2
First Quarter
Dec 10
Full

Hourly Weather History & Observations

Time (MST) Temp. Windchill Dew Point Humidity Pressure Visibility Wind Dir Wind Speed Gust Speed Precip Events Conditions
12:53 AM 46.0 °F 39.6 °F 10.9 °F 24% 29.68 in 10.0 mi NW 15.0 mph - N/A   Clear
1:53 AM 42.1 °F 36.6 °F 12.0 °F 29% 29.69 in 10.0 mi WNW 9.2 mph - N/A   Clear
2:53 AM 36.0 °F 29.0 °F 12.9 °F 39% 29.71 in 10.0 mi West 9.2 mph - N/A   Clear
3:53 AM 30.0 °F 21.7 °F 16.0 °F 56% 29.73 in 10.0 mi West 9.2 mph - N/A   Clear
4:53 AM 30.0 °F 20.5 °F 17.1 °F 59% 29.76 in 10.0 mi West 11.5 mph - N/A   Clear
6:53 AM 35.1 °F 26.4 °F 18.0 °F 50% 29.81 in 10.0 mi WNW 12.7 mph - N/A   Scattered Clouds
7:53 AM 39.0 °F 31.8 °F 19.0 °F 45% 29.85 in 10.0 mi West 11.5 mph - N/A   Clear
8:53 AM 46.9 °F - 18.0 °F 32% 29.86 in 10.0 mi WNW 17.3 mph 24.2 mph N/A   Clear
9:53 AM 50.0 °F - 17.1 °F 27% 29.86 in 10.0 mi NNW 26.5 mph 32.2 mph N/A   Clear
10:53 AM 51.1 °F - 18.0 °F 27% 29.87 in 10.0 mi NNW 24.2 mph 34.5 mph N/A   Clear
11:53 AM 50.0 °F - 19.0 °F 29% 29.88 in 10.0 mi North 21.9 mph 27.6 mph N/A   Clear
12:53 PM 50.0 °F - 21.0 °F 32% 29.89 in 10.0 mi North 19.6 mph - N/A   Clear
1:53 PM 50.0 °F - 21.9 °F 33% 29.90 in 10.0 mi NE 13.8 mph 21.9 mph N/A   Clear
2:53 PM 46.9 °F - 24.1 °F 41% 29.94 in 10.0 mi NE 11.5 mph - N/A   Clear
3:53 PM 44.1 °F 40.1 °F 23.0 °F 43% 29.97 in 10.0 mi NNE 6.9 mph - N/A   Clear
4:53 PM 37.0 °F 30.4 °F 21.0 °F 52% 30.00 in 10.0 mi NE 9.2 mph - N/A   Clear
5:53 PM 30.0 °F 22.4 °F 18.0 °F 61% 30.05 in 10.0 mi ENE 8.1 mph - N/A   Clear
6:53 PM 28.9 °F 21.1 °F 16.0 °F 58% 30.06 in 10.0 mi NE 8.1 mph - N/A   Clear
7:53 PM 25.0 °F 20.7 °F 15.1 °F 66% 30.08 in 10.0 mi NNE 3.5 mph - N/A   Clear
8:53 PM 23.0 °F 17.0 °F 14.0 °F 68% 30.10 in 10.0 mi North 4.6 mph - N/A   Clear
9:53 PM 23.0 °F 14.7 °F 15.1 °F 72% 30.12 in 10.0 mi North 6.9 mph - N/A   Clear
10:53 PM 24.1 °F 14.4 °F 15.1 °F 69% 30.14 in 10.0 mi North 9.2 mph - N/A   Mostly Cloudy
11:53 PM 26.1 °F 20.5 °F 17.1 °F 69% 30.16 in 10.0 mi North 4.6 mph - N/A   Overcast